Theta_e
334 334 333 334 334 334 335 335 335 335 333 334 335 334 333 333 332 333 334 334 334 331 332 332 330 330 331 331 330 329 328 329 331 331 332 331 328 328 330 330 330 331 330 331 330 331 331 332 331 331 331 331 331 330 331 330 330 330 330 330 330 329 329 330 330 330 330 329 329 329 328 328 328 328 327 324 319 315 315 315 315 313 311 314 318
334 334 333 334 334 334 335 335 334 333 334 334 334 335 335 333 331 331 332 334 334 331 332 333 332 331 330 330 331 330 328 328 330 331 331 330 328 329 330 330 331 331 330 330 330 330 330 331 330 330 330 330 330 330 331 331 330 330 330 330 330 329 329 329 329 330 329 329 329 329 329 328 329 329 328 327 325 320 316 315 315 315 312 311 314
333 333 333 334 334 335 334 335 334 333 334 334 333 333 332 331 328 327 329 332 333 332 332 333 333 333 331 331 331 330 328 328 329 330 330 330 329 330 330 330 330 329 329 329 329 329 329 329 329 329 329 329 330 330 330 331 331 330 329 329 329 329 329 330 329 329 329 329 329 329 329 329 329 329 329 328 328 325 320 317 315 315 315 312 311
333 333 333 334 335 335 335 335 335 333 334 334 332 330 327 328 328 328 329 332 332 332 332 331 332 333 332 330 329 329 329 328 328 329 329 329 329 329 328 328 328 328 328 328 328 328 328 328 328 328 328 328 328 329 329 330 329 330 329 327 327 328 328 329 329 328 328 329 329 329 330 329 329 329 329 328 328 328 325 322 318 316 316 314 311
333 333 333 334 334 334 334 334 333 333 333 333 332 329 327 329 330 330 331 332 332 332 332 331 332 332 330 329 328 328 328 328 328 328 328 328 328 328 327 327 327 326 327 327 327 327 326 326 327 327 327 327 327 327 328 328 328 328 327 326 326 326 327 327 327 327 327 327 327 328 329 329 329 329 329 329 328 328 328 327 324 320 316 315 313
333 333 334 334 334 334 333 333 333 333 333 332 333 331 330 331 332 331 331 331 331 331 331 331 331 330 329 328 328 328 328 328 328 327 327 327 326 326 326 326 325 325 325 324 324 325 325 325 326 326 326 326 326 326 326 326 326 326 326 325 325 325 326 326 326 326 326 326 326 326 327 328 329 329 329 329 329 328 328 328 328 326 322 318 315
333 334 334 334 333 333 333 333 333 334 333 332 332 332 332 332 331 331 332 331 331 331 331 330 330 329 327 327 327 327 327 327 327 326 326 325 324 325 323 322 322 321 320 320 320 320 320 321 322 323 323 324 324 325 325 325 325 325 325 325 325 325 325 325 325 325 325 325 325 325 326 326 327 328 329 329 329 329 328 328 328 328 327 323 318
334 334 334 333 333 333 333 333 332 334 333 331 332 333 333 332 330 330 331 331 330 330 330 329 328 327 327 327 326 326 326 326 326 325 324 323 322 322 320 319 317 314 313 313 312 311 311 311 312 314 316 317 319 320 321 322 322 322 322 322 323 323 323 323 323 323 323 324 324 324 325 325 325 326 328 328 329 329 329 329 329 328 329 327 322
334 333 333 333 334 334 333 332 332 333 333 332 332 333 332 331 330 330 330 330 329 329 329 327 326 326 326 326 326 326 325 325 324 322 321 321 320 319 317 314 309 306 304 304 303 302 302 303 303 305 306 307 308 310 311 313 314 315 317 318 318 319 319 320 320 321 321 321 322 323 324 324 323 324 324 326 327 328 329 329 329 329 329 328 326
334 333 334 334 333 332 331 331 332 332 332 332 332 331 331 330 330 329 328 327 326 328 328 325 325 325 325 325 325 324 324 323 323 321 320 319 317 314 310 305 301 300 299 299 299 299 299 299 299 299 300 300 300 301 302 303 304 306 307 309 310 312 313 314 315 316 318 319 320 320 321 322 322 322 322 323 324 326 328 328 328 329 329 329 328
334 334 334 332 332 331 331 332 332 332 332 332 332 331 330 329 329 329 325 322 320 325 327 324 323 324 324 324 324 324 324 323 322 321 320 318 312 306 301 299 299 299 299 299 299 299 298 298 298 298 298 299 299 299 299 299 299 299 300 301 301 302 303 305 306 308 310 313 314 316 318 319 320 320 321 321 322 323 325 327 327 327 328 329 328
334 334 332 331 332 332 332 332 332 332 332 332 331 330 329 328 327 325 320 316 314 320 325 322 322 324 323 323 324 323 322 321 322 321 317 311 304 299 299 299 299 298 298 298 298 298 298 298 298 298 298 298 298 298 298 298 298 298 298 298 298 298 298 298 299 300 302 304 305 308 310 312 314 316 318 319 320 321 323 324 326 327 327 328 328
333 332 331 331 332 332 331 331 331 331 330 329 328 328 327 325 322 318 315 313 311 317 324 323 322 323 322 322 322 322 322 321 319 315 308 302 299 298 299 298 298 298 298 298 298 298 298 298 298 297 297 297 297 297 298 298 298 298 297 297 297 297 297 297 297 297 298 298 299 300 301 303 306 308 311 313 315 317 320 322 323 325 325 327 328
332 331 330 330 331 331 331 330 329 329 328 328 327 326 324 320 316 313 312 312 310 315 322 324 324 323 322 321 321 322 322 318 311 305 300 299 299 299 298 298 298 298 297 297 297 297 297 297 297 297 297 296 297 297 296 297 297 297 297 297 297 297 297 297 297 297 297 297 297 297 297 298 299 301 303 304 306 309 313 316 319 322 324 325 326
330 329 328 329 331 331 330 329 327 328 328 327 325 321 318 315 313 311 311 311 310 311 316 320 325 325 324 324 323 323 320 313 304 300 298 298 299 299 299 299 298 298 298 297 297 297 296 296 296 296 296 296 296 296 296 296 296 296 296 296 297 297 297 297 297 297 297 297 297 297 297 297 297 297 298 299 300 302 304 307 312 317 321 323 324
329 329 330 331 330 329 328 327 327 328 327 324 320 316 314 312 311 310 310 311 309 308 309 313 319 323 325 326 324 324 322 313 304 299 299 299 298 298 299 299 298 298 298 298 297 296 296 296 296 296 296 296 296 296 296 296 296 296 296 296 296 297 297 297 297 297 297 297 297 297 297 297 297 297 297 297 298 298 299 300 303 308 315 320 322
330 330 330 328 328 327 326 326 327 326 322 318 315 313 312 311 310 308 307 308 306 305 304 306 311 317 323 326 324 323 318 310 304 301 300 300 299 298 297 298 298 298 298 298 297 296 296 296 296 296 296 296 296 296 296 296 296 296 296 296 296 297 297 297 297 297 297 297 297 297 297 297 297 298 298 298 299 299 298 298 298 300 306 314 320
329 328 327 326 325 325 325 327 326 322 317 314 312 311 310 309 308 305 303 303 303 302 302 302 304 308 312 315 316 315 312 311 310 305 300 299 299 298 297 297 297 298 298 297 296 296 296 297 297 296 295 295 295 295 295 295 296 296 296 296 296 296 297 297 297 297 298 298 298 298 298 298 298 298 298 298 301 301 299 298 298 297 299 304 313
327 326 325 325 324 324 326 326 321 316 314 312 311 310 308 306 304 302 302 301 301 301 301 301 301 301 302 303 303 303 306 311 312 309 305 302 300 298 297 296 296 297 297 297 296 295 295 297 298 297 296 296 295 295 295 295 295 295 296 296 296 296 296 296 297 297 297 297 298 298 298 298 298 298 298 299 301 300 299 298 298 298 297 298 303
326 325 324 324 325 325 325 321 316 313 311 310 309 308 305 303 302 302 301 301 301 300 300 300 300 300 300 300 300 299 300 303 306 308 309 306 303 301 299 297 296 295 296 296 296 296 296 296 297 298 297 296 296 295 295 295 295 295 295 295 296 296 296 296 296 296 297 297 297 297 298 298 298 298 298 299 299 299 298 298 298 298 298 298 298
326 326 324 324 325 323 319 315 312 311 309 308 307 304 302 302 301 301 301 300 300 300 300 300 300 300 299 299 299 299 299 299 300 304 307 306 305 304 304 303 300 296 295 296 297 298 297 296 297 298 297 296 296 296 295 294 295 295 295 295 295 295 296 296 296 296 296 297 297 297 297 298 298 298 298 298 298 298 298 298 298 298 298 298 298
326 325 324 322 321 318 314 312 310 309 307 305 303 302 301 301 301 301 300 300 300 300 300 300 300 299 300 300 300 301 301 300 300 303 306 305 304 304 304 305 304 299 296 296 298 299 298 297 297 297 297 297 296 296 295 294 295 295 294 295 295 295 296 296 296 296 297 297 297 297 297 297 297 298 298 298 298 298 298 298 298 299 299 298 298
326 325 322 320 317 314 312 310 308 306 304 303 301 301 301 301 300 300 300 300 300 300 300 300 299 299 299 299 300 300 300 299 299 302 304 306 305 303 302 303 303 301 298 297 299 299 298 298 297 297 296 296 296 295 294 295 295 295 294 295 295 295 296 296 296 296 297 297 297 298 298 298 298 298 298 298 298 298 298 298 298 299 299 299 298
326 324 320 317 314 311 309 307 305 304 302 301 301 301 300 300 300 300 300 300 300 299 299 299 299 299 299 299 299 299 298 298 297 298 300 303 305 303 302 302 302 301 300 300 300 299 299 298 297 297 297 296 295 295 294 295 295 294 294 294 295 295 295 296 296 296 297 297 298 298 298 298 299 298 298 298 298 298 298 298 298 299 299 299 299
325 322 318 314 312 309 307 305 303 301 300 300 300 300 300 300 300 300 299 299 299 299 299 299 299 299 299 299 299 298 298 297 297 297 297 298 302 304 304 303 302 302 302 301 301 300 299 299 298 298 297 296 295 295 295 295 295 294 294 294 295 295 295 295 296 296 297 298 298 299 299 299 299 299 299 299 299 299 299 299 299 299 299 299 299
324 321 316 312 309 307 305 302 301 300 300 300 300 299 299 299 299 299 299 299 299 299 299 299 299 299 299 298 298 298 298 298 297 298 298 297 298 302 305 306 305 304 303 302 301 299 299 298 299 298 297 296 295 295 294 294 295 294 294 294 295 295 295 295 296 296 297 298 299 299 299 299 299 299 299 299 299 299 299 299 299 299 299 299 299
322 319 314 310 307 305 303 301 300 299 299 299 299 299 299 299 299 299 299 299 299 299 299 299 299 298 298 298 298 298 297 298 297 297 297 297 296 297 301 305 306 304 303 303 301 299 298 298 299 297 296 295 295 295 294 295 296 295 294 294 294 295 295 295 296 297 298 298 299 299 299 299 299 299 299 299 298 298 298 298 298 298 298 298 299
318 315 311 307 305 303 301 300 299 299 299 299 299 298 298 299 299 299 299 299 298 298 298 298 298 298 298 298 297 298 297 297 297 297 297 296 296 296 297 300 303 304 303 303 302 300 298 298 298 297 296 295 295 295 294 295 296 294 294 295 294 295 295 295 297 297 298 298 299 299 299 299 298 298 298 298 298 298 297 297 298 298 298 298 299
315 311 308 305 303 301 300 299 299 299 298 298 298 298 298 298 298 298 298 298 298 298 298 298 298 297 297 297 297 297 297 297 297 296 296 296 295 296 296 296 298 301 303 303 303 300 298 298 298 297 296 295 295 295 295 295 295 294 294 294 295 295 295 295 297 297 298 298 298 299 298 298 298 298 297 297 297 297 297 297 297 297 297 297 298
312 308 305 303 301 299 299 298 298 298 298 298 298 298 298 298 298 298 298 298 298 298 297 297 297 297 297 297 297 297 296 296 296 296 296 296 295 296 296 295 296 298 300 303 303 299 298 297 297 297 295 295 295 295 295 295 295 295 294 294 295 295 295 296 297 297 297 298 298 299 298 298 298 297 297 297 296 296 296 296 296 296 296 297 297
309 306 303 301 300 299 298 298 298 298 298 298 297 297 298 298 298 298 297 297 297 297 297 297 297 296 296 297 297 296 296 295 295 295 295 295 295 295 295 295 295 295 297 300 302 300 298 297 296 296 295 294 295 296 296 296 295 295 295 295 295 295 296 297 297 297 298 298 298 298 298 298 297 297 297 296 296 296 296 296 296 295 295 295 296
306 304 301 299 299 298 298 298 298 298 297 297 297 297 297 298 297 297 297 297 297 297 297 297 296 296 296 296 296 296 295 295 295 295 295 295 295 295 295 295 295 294 295 298 300 300 298 296 295 296 296 294 296 297 297 296 296 296 295 295 295 296 297 298 297 298 298 298 298 298 298 298 297 297 296 296 296 296 295 295 295 295 295 295 295
304 302 300 299 298 298 298 297 297 297 297 297 297 297 297 297 297 297 296 296 296 297 296 296 296 296 296 295 295 295 295 295 295 295 295 295 295 295 295 295 295 294 294 295 298 299 298 296 295 296 296 295 296 297 298 297 296 296 296 295 296 297 298 298 297 298 298 298 298 298 298 298 297 297 296 296 296 296 295 295 295 295 295 295 295
302 300 299 298 298 298 297 297 297 297 297 297 297 297 296 297 297 296 296 296 296 296 296 296 295 295 295 295 295 294 294 294 294 295 295 295 295 294 295 295 294 294 294 294 296 297 297 297 297 297 296 296 297 298 298 298 297 296 297 297 297 297 298 297 298 298 298 298 298 298 298 298 298 297 297 296 296 296 295 295 295 295 295 295 295
301 300 299 298 298 298 297 297 297 297 297 297 296 296 296 296 296 296 296 296 296 296 296 295 295 295 295 294 294 294 294 294 294 294 294 294 295 294 294 294 294 293 294 294 295 296 297 297 298 297 297 297 298 298 298 298 297 297 298 298 296 296 297 297 298 298 298 298 298 298 298 298 298 297 297 296 296 296 295 295 295 295 295 295 295
300 299 299 298 298 298 297 297 296 296 297 296 296 296 295 296 296 296 296 296 296 295 295 295 295 294 294 294 294 294 294 294 294 294 294 294 294 294 295 295 295 294 294 294 295 295 297 298 299 298 298 298 298 299 298 298 298 298 298 297 296 297 297 298 298 298 298 298 299 299 299 298 298 297 297 297 296 296 296 296 296 296 295 295 295
299 299 298 298 298 297 297 296 296 296 296 296 295 295 295 295 295 296 296 296 295 295 295 294 294 294 293 293 293 294 294 294 294 294 294 294 294 294 294 295 295 294 294 295 294 295 297 299 299 299 299 299 299 299 298 298 298 298 298 297 297 297 298 298 298 298 298 299 299 299 299 298 298 297 297 297 297 296 296 296 296 296 295 295 295
299 298 298 298 298 297 296 296 296 296 296 295 295 295 295 295 295 295 295 295 295 294 294 294 293 293 293 293 293 293 293 293 294 294 294 294 294 294 294 294 294 294 295 295 295 296 297 298 299 299 299 299 299 298 298 298 298 298 298 297 297 298 298 298 299 299 299 299 299 299 298 298 298 298 297 297 297 296 296 296 296 296 295 295 295
298 298 298 297 298 298 297 297 296 296 296 295 295 295 295 295 295 295 295 295 295 294 294 293 293 293 293 293 293 293 293 294 294 294 294 294 294 294 294 294 294 294 295 295 296 296 297 298 298 298 298 299 299 298 297 298 298 297 297 298 298 298 298 298 299 299 299 299 299 299 298 298 298 298 297 297 297 297 296 296 296 296 296 295 295
297 298 298 297 298 299 299 298 297 297 296 295 295 295 295 295 294 295 294 294 294 294 294 293 293 293 293 293 293 293 293 294 294 294 295 295 294 294 294 294 294 294 294 295 296 296 297 297 298 298 298 298 298 297 297 298 297 297 297 297 298 298 297 298 299 299 299 298 298 298 298 298 298 298 298 297 297 297 296 296 296 296 296 296 295
297 297 298 297 298 299 299 297 297 296 295 295 295 295 295 294 294 294 294 294 294 293 293 293 293 292 292 293 293 293 294 294 294 295 295 295 295 294 294 294 294 294 294 294 295 295 296 297 297 297 298 298 297 297 297 297 297 296 296 297 298 298 297 298 299 299 298 298 298 298 298 298 298 298 298 297 297 297 297 297 297 296 296 295 295
297 297 297 297 298 298 298 297 296 295 295 296 295 295 295 295 294 294 294 294 293 293 293 293 292 292 292 292 293 293 293 294 294 294 295 295 295 295 295 295 295 295 294 294 294 294 295 296 297 297 297 297 296 297 297 296 295 295 296 297 297 297 297 298 299 298 298 298 298 298 298 298 297 297 297 297 297 297 297 297 296 296 295 295 294
297 297 296 297 298 298 297 297 296 295 295 295 295 295 295 295 295 295 294 294 293 294 294 293 293 293 292 292 292 293 293 293 294 294 294 294 294 294 294 294 295 295 294 295 294 294 294 295 295 296 296 296 295 296 296 295 294 294 296 297 297 297 298 298 298 298 298 298 298 298 298 298 297 297 297 297 297 297 297 296 296 295 295 294 294
297 296 296 297 297 297 297 297 296 295 295 295 296 296 295 295 295 296 296 294 294 295 295 295 296 295 293 292 292 292 293 293 293 294 293 294 294 294 294 294 295 295 294 295 295 294 294 294 294 295 295 294 294 294 294 293 293 294 295 296 297 297 298 298 298 298 298 297 297 298 297 297 297 297 297 297 297 296 296 295 295 295 294 294 293
297 296 296 297 297 296 296 296 296 295 294 295 296 295 296 295 294 297 298 296 296 297 296 296 297 296 295 295 293 292 293 293 293 293 293 294 294 294 295 295 295 295 295 295 294 294 294 294 294 294 293 292 292 292 292 291 293 294 294 295 297 298 298 298 298 298 297 297 297 297 297 297 297 297 297 297 297 296 295 295 295 294 294 294 293
297 296 295 296 296 295 296 296 296 295 294 295 296 295 296 295 294 298 300 298 297 298 296 295 296 294 294 296 296 294 293 293 294 294 294 294 294 294 295 295 295 295 294 294 294 294 294 294 294 294 293 293 292 291 291 291 292 293 293 295 297 297 297 298 298 297 297 297 297 297 297 297 297 297 297 297 296 296 296 295 295 294 294 294 293
297 296 295 295 295 295 295 295 296 296 295 294 295 295 295 295 294 297 300 300 299 299 297 294 295 294 292 294 295 294 293 293 294 294 294 295 295 295 295 295 295 295 294 294 294 294 294 294 294 294 294 294 293 292 291 291 291 291 293 296 297 297 297 298 298 297 297 297 297 297 297 297 297 297 297 297 296 296 296 295 295 295 294 294 293
298 296 295 295 295 294 295 296 297 297 295 294 296 295 294 295 295 296 300 301 301 300 298 295 294 294 292 293 294 293 293 294 294 294 295 295 295 295 295 295 295 296 295 294 294 294 294 293 293 293 294 294 294 294 293 292 291 291 293 296 297 296 297 298 297 297 297 297 297 296 296 297 297 296 296 297 296 295 296 295 295 294 294 294 294
298 296 294 294 294 294 295 295 296 296 295 294 295 295 294 295 295 296 300 302 301 301 300 297 295 294 292 293 294 293 293 294 294 294 295 295 295 295 295 295 296 296 295 294 294 294 294 294 293 293 294 294 294 295 294 294 293 291 293 296 296 296 297 297 297 297 297 297 297 296 296 297 297 296 296 296 296 296 295 295 295 294 294 294 294
297 296 294 294 294 294 294 294 294 295 294 294 295 295 295 295 295 296 299 301 301 302 300 297 296 296 293 292 294 294 293 294 294 294 295 295 295 295 295 295 296 295 294 294 294 294 294 294 293 293 294 294 294 294 294 294 294 292 293 295 296 296 297 297 297 297 297 297 297 296 296 297 297 296 296 296 296 296 295 294 294 294 294 293 294
297 296 294 293 294 293 293 293 293 294 294 294 294 295 294 294 295 295 296 299 301 300 298 296 295 294 293 292 293 294 294 294 294 294 295 295 295 295 295 295 296 295 294 294 294 294 293 293 294 295 295 295 295 295 295 294 294 294 293 293 294 296 296 297 297 297 297 297 297 296 296 297 297 296 296 295 295 295 295 294 294 293 293 293 293
Wind_Speed
3 3 3 3 3 3 3 3 2 2 1 2 1 2 2 2 2 2 2 3 3 3 4 4 5 4 4 4 5 5 6 6 5 5 6 9 11 11 10 10 10 10 10 10 11 11 11 11 11 12 12 12 12 12 12 12 11 11 12 12 12 13 14 13 13 13 12 13 13 14 15 15 15 15 14 13 12 12 12 13 14 14 13 14 14
4 4 4 3 3 3 3 3 2 2 1 1 1 1 1 2 2 2 2 3 3 4 4 4 5 5 4 4 4 5 6 5 4 5 5 9 10 10 10 10 11 11 11 11 11 11 11 11 12 12 12 12 12 12 12 12 11 11 11 11 12 12 13 13 12 12 12 13 14 14 15 16 16 16 17 15 13 12 13 13 14 14 13 14 15
6 5 5 4 4 3 3 3 2 1 1 1 1 1 0 1 1 2 2 3 3 4 4 4 5 6 5 4 4 5 6 5 4 4 4 8 8 9 11 11 11 11 11 11 11 11 11 12 12 12 11 10 11 11 11 11 12 12 11 12 12 11 12 13 13 12 12 12 14 15 15 17 17 17 17 17 16 14 13 13 14 15 15 14 15
7 6 5 5 4 3 3 2 1 1 1 2 2 2 2 2 3 3 3 4 5 5 5 4 5 5 5 4 4 5 5 5 4 3 4 5 6 8 10 10 10 10 11 11 11 11 12 12 12 11 10 9 9 9 8 9 10 10 11 13 12 11 10 10 12 13 12 12 13 15 15 16 17 17 17 18 17 15 15 14 14 15 15 15 15
6 5 5 5 4 3 2 2 1 1 1 2 2 2 3 4 4 4 5 5 6 5 5 5 4 4 4 3 4 4 4 3 3 3 4 5 6 6 8 8 9 10 10 10 9 10 11 11 11 11 11 10 9 10 10 10 11 10 13 15 14 12 11 9 10 11 11 12 12 14 16 17 16 17 18 19 18 18 17 16 15 15 15 16 16
5 5 4 4 4 3 2 2 1 1 2 2 2 2 3 4 4 4 5 6 5 4 4 4 3 3 3 3 3 3 3 3 3 4 5 5 5 5 6 7 9 10 10 8 8 9 9 9 10 10 11 11 12 13 14 15 16 16 17 18 17 14 13 12 11 11 11 11 11 12 13 15 16 17 18 18 18 19 19 18 18 17 16 16 16
4 5 4 4 3 3 2 2 1 1 2 2 1 2 3 3 4 5 5 4 4 4 3 2 3 3 2 1 2 2 2 2 3 4 4 4 4 5 7 8 9 9 9 8 8 8 9 9 9 10 11 12 14 15 16 17 18 18 19 21 20 17 16 15 14 14 14 12 12 12 11 13 15 16 18 18 18 18 19 20 20 20 19 17 17
4 4 4 3 3 3 3 2 2 2 1 2 1 2 2 3 4 5 4 4 4 3 2 2 3 2 1 1 2 2 2 3 3 3 3 4 5 7 8 9 9 9 8 8 8 9 9 9 9 10 11 12 14 16 16 17 19 19 20 22 22 20 19 18 18 17 16 15 15 16 15 16 17 16 17 19 19 19 19 19 20 21 22 20 18
3 4 3 3 3 3 3 2 2 2 1 1 1 2 2 3 4 5 5 3 3 2 1 3 2 1 2 2 3 4 3 4 3 2 4 6 8 9 9 10 9 8 8 8 8 9 10 10 10 10 11 12 13 15 16 17 18 19 20 21 22 21 20 20 20 19 19 19 18 19 19 21 22 19 18 18 19 20 19 19 19 21 22 22 20
4 4 4 3 3 4 3 1 1 0 0 1 1 1 2 3 3 4 5 4 1 2 0 2 3 3 4 4 4 5 4 4 2 3 5 7 9 9 9 9 9 8 9 9 10 10 10 10 10 11 11 11 12 13 14 15 17 18 19 21 21 22 22 22 21 20 21 21 21 21 20 21 24 23 22 20 19 19 19 20 21 22 23 23 21
4 4 4 4 4 3 2 0 1 1 1 1 1 2 4 4 4 4 4 4 2 2 2 4 5 5 5 5 5 5 4 3 2 4 6 7 7 8 8 8 9 10 10 11 11 11 11 10 10 10 10 11 11 12 13 14 15 16 17 18 20 21 21 22 22 22 22 22 22 22 21 22 24 25 24 23 21 19 19 20 22 23 23 23 22
5 5 5 4 3 2 1 1 1 0 1 1 1 3 4 4 4 3 3 2 1 2 4 5 6 6 6 6 6 5 4 2 3 5 5 5 6 7 8 9 11 12 13 13 13 13 12 12 11 11 10 11 11 11 12 13 14 15 16 17 18 19 20 21 21 22 23 23 23 23 22 23 25 25 25 25 25 23 20 21 23 23 23 24 23
4 4 4 3 2 2 2 2 1 1 2 3 3 4 4 3 3 2 1 2 2 3 5 5 5 6 6 6 6 5 2 2 4 4 4 6 8 9 10 11 13 13 14 14 14 15 15 15 14 13 13 12 12 12 12 13 13 14 15 16 17 18 19 20 20 21 22 23 24 24 24 24 24 25 26 26 28 27 24 22 23 24 23 23 24
5 5 4 4 3 2 2 3 3 3 4 3 4 3 3 3 4 3 3 4 3 4 5 6 5 4 4 5 5 3 1 3 3 4 7 9 10 10 11 12 12 13 14 15 16 16 16 17 16 16 15 15 14 14 14 14 14 14 15 15 16 17 17 18 19 20 21 22 23 24 25 25 25 25 26 26 28 29 28 24 23 23 23 23 23
6 5 5 3 2 2 4 4 4 4 4 3 3 2 2 4 5 4 5 5 4 3 5 8 7 5 5 6 5 2 2 2 3 6 9 10 10 10 11 12 12 13 14 15 16 17 17 17 17 17 17 17 17 17 17 17 17 17 17 16 16 16 16 17 18 19 20 20 21 22 24 25 26 26 25 26 27 29 30 27 25 22 21 22 22
4 3 2 2 4 5 5 5 4 4 3 1 1 2 4 5 5 5 6 5 4 3 4 7 9 8 8 7 6 6 6 5 4 8 9 10 11 10 11 11 12 13 13 14 16 17 18 17 17 18 19 19 19 19 19 19 20 20 20 19 19 19 18 17 17 18 19 20 21 21 22 23 25 26 25 26 26 28 29 28 26 23 22 22 22
2 2 3 5 5 6 5 5 3 2 0 2 3 4 5 5 5 5 6 6 5 4 4 5 7 9 8 6 5 4 4 5 5 7 8 9 10 10 11 12 12 12 13 14 15 15 17 17 19 20 20 20 20 20 21 21 21 21 21 21 21 21 21 20 19 19 20 20 21 22 22 23 24 25 25 25 26 27 28 26 25 24 23 23 23
2 4 5 6 6 5 4 3 2 2 3 4 5 5 6 5 5 5 6 7 7 6 6 7 6 7 7 6 4 3 5 6 4 5 7 8 10 10 11 12 12 12 12 13 14 16 17 17 19 21 22 23 22 22 22 22 22 22 22 23 23 23 22 22 22 21 21 22 22 23 23 24 24 24 24 24 24 26 27 26 24 23 23 23 24
3 4 4 5 4 2 1 2 4 5 6 6 6 6 6 5 5 6 7 8 9 9 10 10 10 9 8 6 5 7 8 7 6 5 4 5 7 9 11 12 13 13 13 13 14 17 19 18 17 19 23 24 23 24 23 23 23 23 23 23 23 24 24 24 24 24 23 23 24 24 24 25 25 25 25 24 24 25 27 27 25 23 23 23 24
3 3 4 3 1 1 3 5 6 7 7 7 7 7 6 6 6 7 9 9 10 11 12 12 11 11 10 10 10 10 10 10 9 6 4 4 4 5 8 12 15 14 13 14 16 17 20 21 17 16 21 23 23 23 23 23 23 23 24 24 25 25 26 26 26 27 26 26 25 25 25 26 26 26 26 26 26 27 28 28 27 25 24 23 23
3 3 2 1 2 4 6 7 8 8 9 8 7 7 7 7 8 9 10 11 11 11 12 12 12 12 11 11 12 12 12 12 11 9 6 5 5 3 3 8 11 14 16 16 15 15 17 20 18 16 19 21 22 22 23 24 24 24 25 25 26 26 26 27 27 28 28 28 28 27 27 27 27 27 27 28 29 29 28 29 29 27 26 24 22
3 3 1 1 5 7 8 9 9 9 9 8 8 8 9 9 10 11 11 11 11 11 11 12 12 12 12 12 12 12 12 13 13 11 8 6 6 5 3 3 4 10 16 16 14 12 15 18 18 17 19 19 21 22 23 25 26 26 26 26 26 25 25 26 26 27 28 28 28 28 28 27 27 28 28 28 29 29 29 29 29 29 29 26 22
2 2 1 3 7 8 9 9 9 9 9 9 9 10 11 11 11 12 11 11 11 11 11 12 12 11 11 12 12 12 13 13 14 12 9 8 6 6 5 5 4 6 12 16 14 12 14 16 17 19 20 20 21 23 25 26 26 27 29 28 27 26 26 27 27 28 28 27 28 28 27 27 27 27 28 29 29 29 30 29 28 29 30 28 24
2 2 1 5 8 9 10 10 9 10 9 9 11 11 12 12 12 12 12 11 11 11 11 11 11 11 11 12 11 12 13 14 14 13 12 11 8 7 6 5 5 5 9 13 12 12 13 14 17 19 19 20 23 25 27 26 26 29 31 30 30 30 30 30 31 30 29 27 26 25 25 25 25 25 26 27 28 29 29 30 29 29 30 30 27
2 1 3 7 9 10 10 10 10 10 10 11 12 13 13 12 12 12 12 12 11 11 10 10 10 11 11 11 11 12 13 13 13 13 14 14 11 8 6 6 6 5 6 8 8 11 13 13 16 18 18 21 24 25 27 27 27 31 32 31 32 33 33 34 34 33 31 28 26 24 24 23 23 24 24 25 26 27 28 29 30 29 28 30 29
4 3 6 9 11 11 11 10 10 11 11 12 13 14 13 13 13 12 12 12 11 11 10 10 10 11 11 11 12 12 12 12 12 12 13 14 14 11 6 4 5 6 5 7 8 11 13 12 13 17 19 22 25 26 27 27 28 31 32 32 33 33 33 35 36 35 33 30 28 26 25 24 24 24 24 25 25 26 27 27 29 30 28 28 29
6 5 8 11 12 12 11 11 11 12 13 14 14 14 13 13 13 12 12 11 11 10 10 10 10 11 12 12 12 12 12 12 12 12 13 14 15 15 11 6 5 6 6 6 8 11 15 14 12 17 22 23 25 25 27 28 27 30 32 33 33 33 34 36 37 36 35 32 30 29 28 27 26 26 25 26 26 26 26 26 27 29 29 27 27
5 9 11 13 12 12 12 12 12 13 14 14 14 14 13 12 12 12 12 11 10 10 10 10 11 11 12 11 11 12 11 12 12 12 14 15 15 15 15 12 8 6 6 6 8 10 15 16 14 18 23 25 25 26 28 28 27 30 33 33 34 35 36 38 39 38 37 34 32 30 29 29 28 27 26 26 27 27 27 27 27 28 29 28 26
9 13 14 14 13 12 12 12 13 14 15 15 15 14 13 12 12 11 11 10 10 10 10 11 11 11 11 11 11 12 12 12 13 13 14 15 16 15 15 16 13 9 7 7 9 11 15 17 16 19 24 25 26 27 29 28 28 31 34 35 36 36 37 40 41 41 38 35 33 31 31 30 29 28 27 26 26 26 26 26 26 27 29 30 28
13 14 15 14 14 13 13 13 14 15 15 15 15 14 12 12 12 11 11 10 10 10 10 11 11 11 10 10 11 12 13 13 13 14 14 14 15 15 16 17 16 14 10 7 8 12 17 18 18 21 24 26 27 29 29 29 30 32 35 37 37 37 40 42 41 39 38 36 34 33 33 32 32 30 29 27 26 25 24 24 24 25 27 29 29
14 14 15 14 14 14 13 14 15 15 15 15 15 14 12 11 11 11 11 10 10 10 10 10 11 10 10 10 12 12 13 14 13 14 14 14 15 15 16 17 18 18 15 8 7 11 16 19 21 22 24 28 28 26 26 28 31 34 36 38 37 38 40 40 39 38 37 37 37 37 37 36 36 35 34 32 30 28 26 25 24 23 25 26 28
15 15 15 14 14 14 14 14 15 15 15 15 15 13 12 11 11 11 11 10 9 9 10 10 10 10 10 11 12 13 14 14 13 13 13 13 14 15 17 18 18 19 18 12 8 10 14 19 22 21 23 29 27 23 24 28 32 34 35 37 37 38 38 37 38 38 36 37 38 38 38 38 39 40 38 37 35 33 29 27 25 24 24 25 27
15 16 15 14 14 14 14 14 15 15 15 15 14 13 12 11 11 11 11 10 9 9 9 9 10 10 10 12 12 13 13 13 13 13 13 14 15 15 16 16 16 18 19 16 11 12 15 19 22 21 23 27 26 23 24 28 33 33 34 37 37 35 34 36 38 37 35 37 38 39 40 40 41 41 39 38 36 34 30 27 26 25 23 24 26
16 16 15 15 14 14 15 15 15 15 15 15 14 13 11 10 11 11 11 10 8 8 9 9 10 10 11 12 13 13 12 12 12 12 12 14 14 14 15 15 16 17 18 18 15 14 17 18 20 21 24 26 24 23 24 27 32 34 33 34 36 34 33 35 38 36 34 35 36 36 39 41 41 40 38 37 35 32 30 28 26 24 23 23 24
17 16 15 15 15 15 15 15 15 15 15 15 14 13 11 10 10 10 10 9 8 8 9 9 10 10 11 12 12 12 12 11 12 12 12 14 14 14 15 15 16 17 17 19 17 16 17 17 17 20 23 25 23 23 23 25 29 33 31 31 35 36 34 35 37 35 33 36 36 35 36 39 39 37 35 34 32 30 29 27 26 25 24 23 23
18 16 15 15 15 15 15 15 15 15 14 14 14 13 12 11 10 10 10 9 9 9 9 10 10 11 11 12 11 12 11 11 11 11 12 13 14 14 14 13 14 15 17 18 17 16 16 16 17 18 21 23 23 22 24 25 27 29 29 33 36 36 34 34 36 35 34 36 36 35 36 37 35 34 34 34 32 30 28 28 29 29 28 26 23
18 17 17 16 15 15 15 15 15 14 14 14 13 13 12 12 11 10 9 9 9 9 9 10 11 11 11 11 11 11 11 10 11 11 11 13 14 14 14 13 12 15 16 17 17 18 16 15 16 17 18 20 22 22 23 27 28 27 29 34 36 35 35 34 33 33 33 33 34 34 35 35 33 33 34 34 33 30 28 29 31 31 29 26 24
18 18 18 17 16 16 15 15 14 14 14 13 13 13 13 12 11 10 9 9 9 9 10 10 11 11 11 11 11 10 10 10 10 10 10 12 13 13 14 13 14 16 16 16 17 18 17 15 15 17 18 19 20 22 24 27 28 29 31 34 35 34 35 35 33 31 30 32 34 35 35 34 34 34 33 32 30 28 28 29 29 29 27 26 24
19 18 18 17 17 16 15 15 15 14 14 14 14 14 13 12 11 10 9 9 9 9 10 10 11 11 11 11 10 10 9 9 9 9 10 11 13 12 13 14 15 16 16 16 16 16 16 16 16 17 18 18 19 23 26 26 27 30 32 35 36 35 35 34 32 29 28 30 34 36 35 34 33 33 32 31 29 28 28 27 26 25 24 24 24
19 19 18 18 18 17 16 16 15 14 14 15 15 15 14 12 11 10 9 9 10 10 10 11 10 11 10 10 10 9 8 8 8 9 9 10 11 11 12 13 15 17 18 17 16 15 15 16 16 17 18 18 19 23 26 26 28 31 33 34 35 35 36 35 31 27 27 31 36 37 35 34 33 32 31 30 29 27 27 25 24 23 23 23 25
19 19 19 18 18 17 17 16 15 15 15 16 16 16 14 13 11 11 10 10 10 10 11 11 11 11 10 9 9 8 7 7 7 8 8 9 11 11 12 13 15 17 18 19 17 17 17 16 16 18 18 18 21 23 25 26 29 33 34 33 32 34 35 34 30 26 25 31 36 36 35 34 33 31 31 31 29 25 25 24 23 24 25 27 30
20 20 19 19 18 18 18 17 16 15 16 17 17 16 15 13 12 11 11 11 11 11 11 11 10 10 10 9 8 7 7 6 6 7 8 9 10 11 12 13 15 16 18 19 19 21 21 17 16 18 18 20 22 22 23 26 29 32 33 33 33 34 35 34 32 28 26 31 36 36 36 35 32 32 32 30 28 25 25 25 25 27 30 33 35
21 21 20 20 19 19 18 18 17 16 17 17 16 15 15 14 13 11 11 12 12 11 11 10 10 10 9 9 8 7 6 6 6 7 8 9 10 12 12 13 15 16 18 19 20 22 23 21 19 17 18 21 23 22 22 26 30 32 32 31 31 34 35 34 35 33 31 33 36 37 38 34 31 33 32 29 27 27 26 27 29 31 32 33 34
22 22 21 21 20 19 19 18 17 16 17 17 16 15 14 14 13 12 11 12 12 10 10 9 7 7 8 8 8 8 6 6 7 7 8 9 10 11 11 13 15 16 17 19 20 22 23 24 22 18 19 23 24 23 24 27 30 31 31 30 30 32 33 33 34 35 34 34 35 36 37 34 32 32 31 29 28 28 27 28 29 29 30 32 34
22 22 22 22 21 21 20 18 17 17 17 16 16 15 14 14 14 12 10 11 11 10 9 9 7 6 6 6 6 7 6 6 7 7 7 7 8 9 11 13 15 16 17 18 20 21 23 24 23 21 22 25 26 25 26 28 29 30 31 30 29 30 32 32 32 33 34 34 35 35 36 35 32 31 31 31 29 28 28 29 30 30 32 35 36
23 23 23 23 22 21 20 19 18 17 17 16 16 15 15 14 14 13 10 9 10 9 9 9 8 7 8 7 5 5 6 6 6 5 6 6 7 9 11 11 12 15 17 19 20 21 22 23 23 24 24 26 26 26 26 27 27 30 32 30 28 30 32 31 30 31 31 30 32 35 36 34 31 31 34 33 29 29 29 29 31 32 32 33 33
23 23 24 24 23 22 21 20 19 18 17 17 16 15 15 14 14 14 10 8 9 8 8 9 8 7 8 8 7 6 6 5 5 4 5 6 6 8 8 8 10 12 13 15 16 18 20 21 22 23 24 24 25 25 26 27 27 31 32 28 26 28 30 29 28 29 29 27 30 35 36 33 30 33 38 36 30 30 30 29 30 31 31 31 31
23 23 24 24 23 22 22 21 20 19 18 17 16 16 16 15 14 13 10 8 8 8 8 8 7 7 7 8 7 6 6 5 4 3 3 4 6 6 6 7 9 9 10 12 14 16 18 19 20 21 21 22 22 23 26 29 30 33 32 26 25 28 28 28 29 31 29 27 29 34 34 32 30 33 42 42 33 30 31 30 29 30 32 31 31
24 24 24 24 23 23 23 22 21 19 18 17 17 17 16 16 15 12 9 8 9 8 9 9 7 7 7 8 7 6 5 4 3 2 2 2 4 4 4 6 7 7 9 11 14 15 17 18 19 19 19 20 22 23 27 30 32 34 30 25 26 28 28 28 29 32 30 26 29 33 33 33 32 31 39 44 36 28 29 30 29 29 30 31 30
23 23 23 24 23 23 23 22 21 20 18 18 18 17 17 17 15 14 12 10 10 10 10 10 9 8 8 8 8 7 6 4 3 1 0 1 3 3 4 5 6 7 9 11 13 15 16 16 18 19 20 22 24 25 27 29 31 33 29 26 27 27 27 28 29 31 29 25 29 34 34 35 33 30 36 42 38 33 30 29 30 30 29 30 31
22 22 23 24 23 23 23 22 22 21 19 18 18 17 18 18 17 16 15 13 14 14 13 12 11 10 9 7 8 7 6 5 3 2 2 2 2 3 4 5 6 8 11 13 14 15 16 17 19 20 20 21 22 24 26 28 30 31 30 28 27 25 26 27 27 29 28 26 32 37 36 36 34 32 36 38 39 43 40 32 32 33 30 31 32
Wind_Direction
203 200 193 180 176 165 156 151 142 130 101 86 63 22 22 3 7 15 10 24 11 0 5 356 356 358 4 358 350 354 349 356 5 358 332 305 320 343 344 344 346 345 346 343 345 351 356 1 4 7 7 3 359 354 350 345 340 337 333 329 325 318 317 316 309 304 304 306 305 303 305 309 314 317 320 319 310 297 288 286 284 281 273 262 258
206 200 189 178 171 166 161 157 159 151 113 83 51 27 26 354 358 14 23 36 13 3 12 3 1 357 354 356 2 359 347 359 23 25 349 314 334 4 2 3 7 5 4 0 356 353 351 352 356 5 10 10 6 360 358 356 351 342 334 333 330 327 331 328 321 313 306 303 299 296 299 303 303 303 307 312 311 303 295 290 285 281 277 266 257
202 199 187 174 166 169 171 165 168 162 117 79 42 28 353 332 0 15 17 31 18 13 15 12 23 16 5 11 14 1 351 359 12 44 19 333 352 21 13 10 14 14 14 11 7 2 358 355 352 353 357 4 4 1 5 5 3 356 340 333 331 338 352 350 340 327 311 300 295 295 296 296 295 295 297 300 303 304 301 297 290 283 279 271 260
198 193 181 169 166 172 176 173 162 132 94 54 31 349 330 356 23 25 8 13 22 19 10 13 37 37 27 21 10 1 359 0 356 16 43 20 18 22 11 9 11 15 14 9 6 2 358 354 347 342 336 336 341 345 354 355 356 357 340 329 328 329 341 349 344 336 325 309 293 289 290 291 294 294 291 293 294 295 298 300 297 290 283 276 267
190 177 169 166 168 167 157 156 136 94 60 44 26 347 358 11 15 20 14 19 24 21 18 20 33 46 43 22 4 6 5 11 20 26 46 40 22 15 13 7 5 5 0 357 356 351 345 339 333 330 325 319 317 316 317 318 319 321 317 317 321 319 317 320 328 334 336 328 312 296 288 286 287 288 288 289 288 287 289 294 296 294 288 281 274
177 162 163 167 159 152 145 152 133 79 53 42 18 349 14 18 13 17 21 27 23 22 29 29 40 47 35 20 8 16 32 39 58 61 49 29 8 5 5 359 357 353 345 340 340 336 330 327 323 321 318 313 311 309 307 306 306 308 310 312 316 315 309 304 303 307 314 324 327 318 308 298 287 282 283 283 283 283 284 286 288 289 288 284 277
161 151 160 163 153 157 162 165 148 97 62 35 6 11 27 26 22 19 22 28 21 24 39 54 70 68 46 41 43 49 72 80 88 77 41 2 350 353 353 352 352 347 339 334 332 330 327 324 321 317 314 311 310 310 310 309 309 313 314 314 318 320 314 307 301 298 298 302 307 312 319 312 295 283 279 276 275 278 280 283 283 284 286 285 279
151 150 159 163 167 177 178 175 142 95 44 14 15 40 35 30 25 11 9 26 33 23 36 82 78 84 108 132 118 118 120 116 107 78 18 342 345 350 351 351 350 347 343 339 336 336 335 331 327 321 316 313 310 310 311 310 311 315 316 315 319 323 322 317 313 307 303 298 294 294 298 299 296 289 283 279 275 274 275 278 279 278 279 281 281
163 165 165 163 169 190 200 185 130 99 34 352 54 66 23 16 14 357 352 6 56 37 0 102 108 196 159 162 153 143 142 130 112 48 353 342 345 348 351 352 353 355 353 355 355 353 351 347 341 334 325 318 314 311 311 310 310 311 313 313 315 318 320 320 318 315 310 305 299 296 295 295 297 297 295 289 283 278 273 270 270 268 267 270 276
174 172 168 172 181 208 221 202 108 85 59 28 31 30 0 0 356 348 345 334 44 91 234 149 158 188 171 168 160 148 145 132 103 7 349 344 345 349 356 360 4 8 11 17 17 13 7 0 352 346 339 332 326 321 317 315 314 313 313 313 312 313 314 315 315 314 311 308 307 305 303 300 298 300 302 299 291 282 275 268 266 264 261 262 266
176 169 177 191 191 209 232 275 324 355 60 50 0 347 349 352 353 350 346 323 303 131 154 179 175 184 180 173 165 156 147 127 41 353 347 349 356 4 10 14 19 22 25 27 26 25 21 17 12 3 356 350 344 338 333 329 326 323 322 319 317 316 315 313 312 312 309 307 307 307 306 302 299 300 302 301 297 289 281 274 270 268 265 262 263
184 181 194 200 188 209 247 277 301 25 32 21 334 330 334 346 6 358 353 337 309 130 148 181 184 186 186 179 169 158 147 95 3 344 351 9 25 31 28 27 28 27 28 30 30 31 29 29 29 23 15 7 1 354 347 342 338 334 331 329 326 324 322 319 316 313 311 308 306 304 303 301 300 301 301 300 299 297 291 284 280 278 273 265 260
198 197 205 205 201 237 269 294 329 349 340 345 332 326 331 356 40 39 53 91 100 134 151 164 163 165 173 183 181 169 151 26 2 0 33 48 48 44 40 35 31 29 29 30 30 30 30 30 29 28 24 19 13 7 359 353 347 342 338 335 333 330 327 324 321 318 314 311 309 306 304 302 299 299 299 299 299 297 295 290 287 286 284 275 262
214 214 219 221 218 256 312 331 344 341 336 337 331 335 358 37 77 95 109 112 121 159 166 155 161 180 170 179 203 225 306 356 29 69 66 61 56 47 44 41 34 31 31 32 32 31 30 29 27 25 23 22 19 14 10 4 357 352 348 343 339 335 331 327 325 322 319 315 312 310 308 306 303 299 297 298 297 295 294 294 292 289 287 283 274
218 222 228 237 265 324 335 337 341 338 331 334 347 16 56 81 101 116 117 116 128 176 183 168 179 219 220 209 216 199 133 73 70 77 65 58 59 54 49 44 38 37 35 33 33 32 31 28 25 24 21 20 19 17 14 8 4 2 358 353 348 343 338 333 329 326 323 320 317 314 311 309 307 305 301 298 296 294 293 293 294 292 287 282 278
223 229 254 320 336 331 329 328 331 328 320 338 53 82 91 99 109 121 124 127 140 170 191 179 181 195 213 232 228 190 155 139 97 69 60 55 54 53 54 50 43 42 40 37 33 31 30 26 24 24 21 20 19 17 16 10 6 4 0 357 355 351 346 341 336 331 327 324 322 318 315 312 310 309 308 305 300 296 293 292 292 291 288 282 276
238 325 340 339 327 320 318 314 313 301 211 122 111 106 102 104 110 117 123 131 144 159 168 181 195 196 201 227 234 199 145 150 123 75 66 61 55 50 50 51 49 48 43 40 36 31 29 26 26 25 22 22 21 19 16 12 7 4 359 357 356 352 348 346 342 337 333 328 324 321 318 316 313 312 311 310 308 303 299 297 293 289 285 282 278
2 357 341 329 317 311 304 288 250 182 143 125 116 109 103 104 111 114 117 123 133 146 142 146 166 178 185 202 209 146 134 163 155 100 82 64 57 55 50 49 51 51 46 40 36 32 30 27 25 22 21 21 21 19 17 12 7 3 359 356 353 350 347 346 343 340 336 331 326 323 320 317 315 314 312 312 313 310 306 303 299 292 284 279 277
10 352 337 328 318 302 247 192 166 149 132 122 113 109 108 111 114 112 114 119 127 137 133 128 131 134 138 141 125 119 130 149 159 141 112 77 58 53 54 53 51 49 47 43 36 31 32 33 26 17 18 19 18 17 16 11 6 2 359 355 351 349 347 344 342 339 335 331 327 323 320 316 314 313 311 312 312 310 309 307 304 300 290 280 275
14 1 350 340 329 149 153 155 148 137 126 120 114 114 117 117 115 111 113 117 122 131 129 123 123 116 110 107 101 98 102 117 135 135 122 118 88 55 44 44 46 45 43 41 37 33 30 32 29 16 14 16 14 12 11 8 5 2 359 354 351 349 347 344 341 338 334 330 327 322 318 315 312 310 308 308 308 307 307 307 306 304 298 289 280
29 16 4 23 139 142 146 146 139 132 124 120 118 120 120 117 115 112 111 112 113 117 117 114 111 106 102 99 93 89 86 92 105 108 109 116 113 114 33 27 33 34 37 40 36 32 27 28 26 16 13 12 8 7 5 3 3 2 357 353 353 351 348 345 342 338 335 330 327 322 318 314 310 307 305 303 303 304 303 303 305 305 301 297 290
37 26 23 149 149 147 147 142 134 128 123 122 123 121 120 117 114 112 110 109 107 105 102 100 99 99 100 96 90 87 83 80 83 89 95 94 95 103 80 47 31 22 30 40 39 28 25 26 22 17 16 10 5 4 1 0 0 358 356 355 354 351 349 347 344 340 335 331 327 323 319 314 310 307 304 301 300 301 301 300 300 300 299 299 295
28 28 98 162 156 151 146 139 131 126 124 124 125 122 120 119 115 113 110 107 104 99 96 95 95 94 91 90 89 87 84 80 79 81 83 83 82 79 68 60 59 30 23 31 34 24 20 21 17 16 14 8 5 4 2 1 356 353 356 356 352 350 352 351 348 344 339 333 328 323 320 316 312 308 304 301 299 298 298 297 295 293 294 296 294
27 23 174 167 158 152 143 136 131 129 129 127 126 123 120 119 118 116 112 108 103 99 99 98 96 92 86 85 85 82 80 78 79 81 79 79 77 68 61 53 55 44 25 27 25 17 15 12 11 13 8 2 3 3 3 360 354 355 356 352 350 354 356 354 351 349 344 339 332 326 322 318 313 309 304 301 298 296 295 294 293 290 289 290 291
356 332 191 171 160 152 142 138 135 133 132 130 127 124 122 122 121 118 114 108 105 104 103 99 94 90 87 84 82 80 79 77 77 75 72 73 75 70 58 55 56 41 33 37 24 14 13 7 7 9 2 360 2 3 1 357 355 358 354 350 353 357 356 354 352 350 347 344 339 333 327 320 314 309 304 301 297 294 292 291 291 290 286 285 287
303 249 189 173 162 152 144 141 138 137 134 131 128 126 126 125 122 118 114 111 109 107 101 97 95 92 89 86 84 83 80 78 75 72 69 67 70 70 55 42 52 44 38 35 25 17 11 5 4 5 1 2 4 3 0 359 357 356 352 353 357 357 355 354 352 350 349 346 343 338 331 325 317 311 306 304 300 295 292 290 289 289 287 284 283
274 212 181 171 162 152 146 143 142 140 134 131 129 128 127 125 122 119 115 113 109 105 101 99 97 93 90 88 87 86 82 80 75 71 71 66 66 69 65 57 48 42 42 33 26 17 10 8 4 2 3 4 4 2 3 3 357 353 354 357 358 357 356 355 352 351 348 345 343 339 335 330 324 318 312 308 306 302 297 293 289 287 287 284 280
221 183 172 166 159 152 148 146 146 142 135 133 131 127 127 125 123 120 115 111 108 107 105 102 97 92 91 90 89 89 83 80 77 71 70 68 66 65 65 67 58 34 27 27 26 11 7 10 3 0 6 7 5 4 8 6 357 355 359 360 360 359 356 355 354 352 349 346 344 342 339 336 330 325 318 312 310 306 301 296 290 286 285 283 279
178 170 168 163 156 151 151 149 147 142 136 133 129 127 129 128 125 119 112 110 111 110 105 100 96 91 91 92 91 89 84 79 76 72 70 68 67 64 62 63 61 49 28 18 18 5 6 10 2 360 7 7 6 9 12 7 359 360 2 2 1 357 355 357 356 351 347 344 343 342 340 338 334 329 323 316 311 306 301 295 290 286 283 282 279
166 165 165 161 155 151 152 150 146 141 136 133 129 131 132 128 125 119 114 114 112 108 103 99 97 94 94 95 91 86 82 78 74 71 69 68 67 65 62 60 58 56 46 23 8 3 6 10 6 3 6 6 7 9 8 3 360 2 5 4 359 353 355 359 355 347 342 340 340 341 340 338 335 332 327 322 316 311 305 299 293 286 281 280 278
162 163 162 159 156 152 150 149 146 141 138 135 133 133 132 129 126 122 117 114 110 107 106 104 101 98 96 93 89 86 81 78 76 73 69 68 66 63 62 58 53 52 49 32 1 358 1 6 8 6 5 8 8 3 357 356 359 3 5 3 356 352 354 353 349 344 339 337 338 338 337 336 335 334 332 329 325 319 311 305 301 293 285 281 277
161 162 161 158 156 151 149 149 147 143 141 139 137 134 134 133 131 124 117 112 111 112 110 108 105 101 97 92 88 86 84 82 79 75 70 68 65 61 59 56 48 46 46 36 5 351 358 6 8 1 360 7 8 356 347 352 357 359 2 0 355 351 349 346 344 342 338 338 338 335 334 334 333 332 330 328 325 321 316 309 305 299 291 285 278
161 163 162 158 155 151 150 150 148 146 145 142 139 136 138 138 133 125 118 116 119 117 114 112 108 103 97 92 89 87 86 85 80 76 72 68 64 59 57 54 46 41 41 37 16 356 0 8 8 0 357 3 4 355 347 350 355 356 357 358 354 347 342 341 343 341 337 338 338 336 337 336 332 330 328 325 322 319 316 312 309 305 298 291 284
163 166 164 160 156 154 154 152 151 150 148 146 142 141 141 140 134 127 122 124 126 122 119 116 109 104 98 94 92 91 88 86 83 79 75 72 67 60 57 53 46 39 36 34 24 7 4 4 2 360 359 0 358 353 347 346 351 354 352 351 350 345 341 341 342 340 336 337 337 337 337 334 330 328 326 323 321 319 318 315 313 311 306 300 292
167 168 166 163 159 157 156 154 154 153 152 149 146 144 143 140 138 133 130 132 131 127 124 117 109 104 100 97 96 93 91 90 86 81 77 74 69 60 55 49 42 38 34 31 24 10 2 358 354 354 356 357 353 348 346 343 346 350 347 343 347 347 342 341 341 338 336 339 341 338 333 328 326 325 323 323 324 323 322 320 320 319 315 309 298
171 170 168 166 162 159 158 157 157 156 155 153 149 148 147 146 144 139 136 137 136 131 125 117 112 106 101 101 99 96 94 91 87 82 77 74 68 60 54 46 35 33 33 29 21 11 359 349 348 350 350 350 348 346 345 342 343 346 343 341 346 346 341 340 341 339 339 342 341 335 329 327 326 326 327 328 327 326 327 326 324 321 317 312 303
175 172 170 168 164 162 160 159 159 157 158 157 153 153 153 152 150 146 144 142 137 133 125 119 115 109 107 106 104 102 99 94 90 84 78 74 69 61 56 50 37 33 32 26 20 16 3 345 343 346 344 344 345 345 345 344 343 342 340 342 345 344 342 340 339 339 340 339 336 333 331 331 331 331 331 327 324 325 327 323 319 318 317 316 312
178 175 173 169 166 165 162 161 162 161 161 160 159 160 159 157 155 151 149 145 141 136 128 124 120 114 114 113 112 110 105 100 95 87 80 74 68 59 54 50 41 36 31 22 18 16 5 351 345 343 342 343 343 343 345 347 345 341 338 340 343 344 342 340 338 338 338 335 333 334 334 335 335 333 330 327 326 326 322 317 315 316 317 317 317
181 179 175 172 170 168 166 166 166 166 166 165 166 166 164 163 161 157 154 149 146 142 133 129 125 120 121 120 118 117 111 105 98 89 81 73 66 58 49 46 41 36 30 22 16 10 1 356 350 345 345 344 342 342 346 348 346 344 342 339 340 342 341 339 338 338 336 334 334 335 336 336 335 333 331 330 329 325 319 315 315 318 320 318 313
181 180 178 176 173 171 171 171 171 172 172 171 172 171 169 169 167 162 159 156 152 148 141 135 130 125 125 124 122 120 115 110 100 89 81 72 66 57 47 42 37 35 32 25 17 8 1 359 353 348 346 344 343 343 347 349 346 346 346 341 337 338 339 339 339 338 337 337 336 336 338 337 335 335 335 333 331 325 320 320 323 322 317 308 302
180 181 182 180 176 175 176 176 177 177 177 178 178 175 174 175 174 169 165 161 158 153 144 138 133 128 126 125 125 121 114 107 97 88 77 68 64 55 45 40 35 33 31 27 20 13 8 2 354 351 349 345 345 345 346 348 345 345 346 342 336 336 337 338 339 339 339 338 336 336 338 338 336 335 336 334 331 327 324 325 322 313 304 302 304
181 181 183 182 180 180 180 180 182 182 183 186 183 179 178 178 178 175 168 163 161 155 147 140 135 132 128 123 122 118 111 99 86 76 67 58 55 50 43 38 35 33 31 28 24 19 15 6 356 353 349 344 346 347 344 344 344 346 346 342 337 338 340 340 340 341 343 341 338 335 337 339 338 335 335 334 332 330 327 323 316 308 305 308 309
183 183 184 183 184 185 184 185 186 186 189 190 186 182 181 180 179 175 170 168 162 155 148 141 136 133 127 120 117 113 106 97 82 67 58 49 43 41 37 34 32 32 31 28 25 22 19 13 5 355 347 345 348 347 343 342 346 349 347 342 338 339 342 340 338 340 343 344 340 335 335 339 338 334 334 334 332 329 325 320 314 311 311 312 312
186 186 185 185 187 188 188 189 189 191 194 190 186 186 185 184 180 171 169 170 163 156 151 143 141 141 129 119 117 116 114 106 89 71 57 47 41 37 33 31 31 31 30 28 26 23 19 16 10 358 349 351 352 349 346 346 348 350 347 343 342 342 340 337 335 335 338 342 340 334 334 338 339 335 334 335 332 328 324 319 315 317 320 321 318
189 188 186 187 190 190 190 190 191 195 197 191 187 188 188 187 179 165 167 173 163 160 161 154 157 161 144 127 118 117 125 119 100 88 74 57 45 39 33 29 28 27 26 26 25 23 19 15 11 3 357 357 357 353 351 351 351 350 348 346 346 342 337 334 334 333 336 341 342 336 333 337 340 337 335 334 332 329 326 322 322 326 326 319 313
190 189 189 189 192 192 190 191 192 197 199 193 190 189 187 188 178 162 168 182 170 170 176 166 165 166 155 149 143 132 132 125 114 109 96 75 57 47 43 39 31 26 24 23 22 19 17 14 9 4 1 360 359 356 355 356 354 353 354 352 345 338 335 333 333 334 337 342 343 338 334 337 341 339 336 336 334 332 330 327 326 325 318 313 313
191 192 192 192 194 193 192 192 193 197 199 193 190 190 187 187 180 167 172 192 185 183 190 180 173 172 160 152 153 149 142 139 133 121 101 84 68 54 47 45 38 32 27 24 21 18 16 13 7 3 360 358 359 359 359 0 357 357 1 358 342 336 337 336 336 339 341 344 346 342 336 336 341 341 340 341 336 333 334 331 326 323 319 321 325
193 195 195 195 196 194 194 195 195 198 199 192 190 191 187 186 183 173 178 205 205 199 205 198 186 183 170 155 153 155 153 158 153 125 103 82 71 56 41 39 36 28 20 16 15 14 13 12 7 2 359 356 356 358 1 3 1 0 2 355 342 341 342 339 340 342 343 346 349 346 338 336 342 343 344 346 341 334 337 335 329 327 329 330 326
196 196 197 198 198 198 198 198 198 200 199 192 190 191 187 187 184 175 180 215 221 215 217 213 202 200 188 169 167 169 162 171 176 138 106 67 67 56 32 33 29 16 6 3 3 5 5 7 6 3 0 359 360 1 3 4 3 3 0 350 344 347 345 342 342 342 343 347 349 347 341 338 341 342 344 348 346 338 336 337 335 333 331 329 325
196 196 199 201 201 202 202 201 201 202 201 195 192 190 189 190 187 179 184 206 219 221 222 219 212 213 209 186 175 175 174 185 201 188 200 25 48 29 7 15 12 358 353 353 355 356 358 1 3 3 3 4 5 5 4 5 5 4 0 352 349 348 344 343 342 340 343 348 349 347 344 341 341 342 345 348 348 347 344 339 338 338 334 331 330
197 199 201 203 204 204 203 203 203 204 202 197 193 192 192 193 192 188 187 198 212 216 217 220 218 216 217 204 188 184 186 196 211 226 269 318 0 357 351 1 358 345 344 349 350 349 353 359 1 360 358 356 358 0 1 3 4 3 2 0 357 351 344 342 342 341 343 346 347 348 347 344 342 345 349 349 346 349 352 347 343 344 341 337 335